AO-07 1 07530U 74089B 18053.50885201 -.00000014 00000-0 18892-3 0 9996 2 07530 101.6718 022.6195 0011928 195.9714 273.5224 12.53631264979994 UO-11 1 14781U 84021B 18053.56701469 .00000054 00000-0 12872-4 0 9994 2 14781 097.6651 094.5775 0009988 098.3182 261.9165 14.82981919806454 LO-19 1 20442U 90005G 18053.41395249 .00000001 00000-0 16391-4 0 9995 2 20442 098.6006 352.6754 0012643 125.6983 234.5380 14.32887161467390 HUBBLE 1 20580U 90037B 18053.64269487 .00000434 00000-0 15635-4 0 9992 2 20580 028.4691 152.2797 0002685 352.7133 145.7619 15.08983221328066 MET-2/21 1 22782U 93055A 18053.48850417 .00000087 00000-0 64787-4 0 9998 2 22782 082.5512 184.9484 0023506 089.3647 339.6341 13.83808053236040 AO-27 1 22825U 93061C 18053.47257779 .00000002 00000-0 18516-4 0 9990 2 22825 098.8491 027.5932 0007826 327.8419 032.2284 14.30022274272901 IO-26 1 22826U 93061D 18053.51593076 .00000002 00000-0 18482-4 0 9991 2 22826 098.8433 027.6894 0008188 316.4123 043.6411 14.30353193273113 FO-29 1 24278U 96046B 18053.54200586 -.00000011 00000-0 23293-4 0 9991 2 24278 098.5281 268.0217 0351105 048.4782 314.5923 13.53081677062480 NOAA-15 1 25338U 98030A 18053.52811688 .00000005 00000-0 21126-4 0 9998 2 25338 098.7762 069.8455 0010288 194.7386 165.3495 14.25839524028675 GO-32 1 25397U 98043D 18053.40141825 .00000001 00000-0 19342-4 0 9996 2 25397 98.6391 355.8085 0001652 36.9456 323.1836 14.23640133 19390 ISS 1 25544U 98067A 18053.57111333 .00002316 00000-0 42206-4 0 9991 2 25544 051.6417 230.0986 0003352 123.7695 345.7256 15.54134237100693 NO-44 1 26931U 01043C 18053.48224887 -.00000035 00000-0 18510-4 0 9997 2 26931 067.0517 165.3828 0005929 282.0766 077.9671 14.30494683856073 SO-50 1 27607U 02058C 18053.52848394 -.00000020 00000-0 17780-4 0 9997 2 27607 064.5546 080.4966 0051576 355.7600 004.3058 14.75421494815912 CO-55 1 27844U 03031E 18053.48591139 .00000045 00000-0 40143-4 0 9994 2 27844 098.6893 063.8222 0009486 350.0225 010.0763 14.22095640759851 CO-57 1 27848U 03031J 18053.48378277 .00000033 00000-0 34810-4 0 9995 2 27848 098.6981 064.1783 0009586 000.3593 359.7590 14.21702052759732 RS-22 1 27939U 03042A 18053.63156274 .00000092 00000-0 25069-4 0 9997 2 27939 097.9707 195.8522 0013764 147.3085 278.9766 14.66659221769887 NOAA-18 1 28654U 05018A 18053.55495323 -.00000029 00000-0 97021-5 0 9998 2 28654 099.1598 086.5950 0015293 090.2418 270.0505 14.12367264657604 CO-58 1 28895U 05043F 18053.41669038 .00000136 00000-0 34963-4 0 9997 2 28895 097.8911 209.6333 0018105 074.0492 286.2704 14.63511086657086 Falconsat-3 1 30776U 07006E 18052.96447172 .00002341 00000-0 71143-4 0 9992 2 30776 035.4353 279.9638 0002116 053.4704 306.6217 15.33948066606614 CO-65 1 32785U 08021C 18053.53553699 .00000185 00000-0 25683-4 0 9990 2 32785 097.5528 071.1578 0014439 062.1726 298.0953 14.88064696532050 AAUSAT2 1 32788U 08021F 18053.51461449 .00000352 00000-0 37872-4 0 9991 2 32788 097.5341 084.7329 0012275 020.3936 339.7773 14.94227933532959 DO-64 1 32789U 08021G 18053.16012051 .00001424 00000-0 10240-3 0 9994 2 32789 97.5280 110.8167 0011582 336.5458 23.5239 15.05765532534473 CO-66 1 32791U 08021J 18053.54172013 .00000374 00000-0 43699-4 0 9992 2 32791 097.5446 076.2495 0014410 045.3082 314.9307 14.90472061532353 RS-30 1 32953U 08025A 18053.51003536 .00000009 00000-0 -62440-5 0 9998 2 32953 082.4993 084.0016 0020390 100.0111 260.3270 12.43081798442526 PRISM 1 33493U 09002B 18053.53766844 .00001248 00000-0 11644-3 0 9997 2 33493 098.1426 311.1627 0015281 342.2426 017.8267 14.96088435493202 NOAA-19 1 33591U 09005A 18053.58048902 .00000108 00000-0 84173-4 0 9994 2 33591 099.1291 029.4120 0013066 290.5784 069.3985 14.12256025465736 TISAT-1 1 36799U 10035E 18053.60757338 .00000271 00000-0 33646-4 0 9995 2 36799 098.0879 186.9216 0011608 219.5993 140.4377 14.90699830412882 JUGNU 1 37839U 11058B 18053.21668782 .00000309 00000-0 22989-4 0 9998 2 37839 19.9627 14.4061 0019089 59.9879 65.7986 14.12609838329092 SRMSAT 1 37841U 11058D 18053.35846413 .00000316 00000-0 28409-4 0 9996 2 37841 19.9731 60.3792 0011678 310.2192 198.7197 14.10598859328659 AO-71 1 37854U 11061E 18053.48928799 .00001734 00000-0 98168-4 0 9990 2 37854 101.7132 059.6889 0164679 053.5418 308.0844 15.05102816344128 HRBE 1 37855U 11061F 18053.47156743 .00001696 00000-0 94483-4 0 9995 2 37855 101.7261 057.2955 0177722 061.6684 300.2325 15.04074658343935 ALMASAT-1 1 38078U 12006B 18053.49840495 .00013705 38507-5 13191-3 0 9997 2 38078 069.4351 172.6081 0266175 278.6496 205.9769 15.34565756323025 HORYU-2 1 38340U 12025D 18053.47071776 .00000168 00000-0 32853-4 0 9994 2 38340 098.3741 071.2089 0010958 210.7037 149.3531 14.75501732299788 RS-40 1 38735U 12041C 18053.53813621 .00000020 00000-0 76222-4 0 9995 2 38735 082.4792 168.1005 0017049 200.3294 159.7108 12.42576801252761 BEESAT-3 1 39134U 13015E 18053.51214997 .00001147 00000-0 64133-4 0 9999 2 39134 064.8635 137.7708 0023783 226.2946 133.6211 15.18827482267100 BEESAT-2 1 39136U 13015G 18053.47599819 .00001163 00000-0 70093-4 0 9995 2 39136 064.8701 152.2544 0029881 248.1369 111.6578 15.15887325266811 ZACUBE-1 1 39417U 13066B 18053.51746568 .00000178 00000-0 28825-4 0 9994 2 39417 097.6008 088.2028 0059533 169.3728 190.8759 14.80878327229825 TRITON-1 1 39427U 13066M 18053.48873909 .00000141 00000-0 30869-4 0 9992 2 39427 097.6383 057.0444 0112681 266.8338 091.9971 14.67613606227560 GOMX-1 1 39430U 13066Q 18053.50284393 .00000241 00000-0 52982-4 0 9993 2 39430 097.6864 038.7152 0151057 333.1128 026.2301 14.59027322226242 LO-74 1 39440U 13066AA 18053.47664284 .00000164 00000-0 29955-4 0 9999 2 39440 097.6092 075.4868 0079971 207.1097 152.5927 14.75614828227808 AO-73 1 39444U 13066AE 18053.57310678 .00000206 00000-0 31883-4 0 9999 2 39444 097.6019 089.6346 0058831 165.0412 195.2560 14.81643615228096 SPROUT 1 39770U 14029E 18053.50888174 .00000611 00000-0 74958-4 0 9995 2 39770 097.8728 155.5657 0008151 217.5298 142.5363 14.86674881203329 DUCHIFAT-1 1 40021U 14033M 18053.44436852 .00000447 00000-0 51977-4 0 9999 2 40021 097.9177 331.9578 0012507 190.8912 169.2037 14.90203014199865 NANOSATCBR1 1 40024U 14033Q 18053.56356604 .00000311 00000-0 38609-4 0 9998 2 40024 097.9121 330.5403 0011800 191.9362 168.1577 14.89481389199290 EO-79 1 40025U 14033R 18053.54620273 .00000223 00000-0 29978-4 0 9994 2 40025 097.9087 329.1653 0011953 196.0581 164.0258 14.88639953199226 DTUSAT-2 1 40030U 14033W 18053.27950559 .00000227 00000-0 30601-4 0 9992 2 40030 097.9041 327.7372 0011516 191.3234 168.7725 14.88253175199130 EO-80 1 40032U 14033Y 18053.53426354 .00000220 00000-0 29902-4 0 9999 2 40032 097.9047 327.9953 0011478 191.0444 169.0522 14.88188959199150 ANTELSAT 1 40034U 14033AA 18053.60839689 .00000170 00000-0 32987-4 0 9999 2 40034 097.8280 294.3199 0058187 205.9636 153.8651 14.73865109197273 VELOX-1 1 40057U 14034E 18053.37499289 .00000332 00000-0 54353-4 0 9998 2 40057 098.1936 162.5194 0010434 343.9811 016.1071 14.77347670196696 DAURIA DX 1 1 40071U 14037C 18053.50642006 .00000114 00000-0 22134-4 0 9999 2 40071 098.3571 179.8784 0007978 339.0155 021.0729 14.81123762196022 UKUBE-1 1 40074U 14037F 18053.44163204 .00000327 00000-0 46653-4 0 9991 2 40074 098.3689 185.0317 0004016 343.6388 016.4696 14.83722406196286 HODOYOSHI-1 1 40299U 14070B 18053.53550730 .00000827 00000-0 38393-4 0 9998 2 40299 097.3842 137.3146 0011651 298.7406 177.3966 15.22739190183037 CHUBUSAT-1 1 40300U 14070C 18053.53044324 .00000932 00000-0 44468-4 0 9995 2 40300 097.3733 133.6415 0019058 308.5601 176.6968 15.21395366182847 QSAT-EOS 1 40301U 14070D 18053.46552938 .00001909 00000-0 80296-4 0 9997 2 40301 097.3670 134.4255 0025358 299.2871 184.1439 15.24350715182944 FIREBIRD FU3 1 40377U 15003B 18053.61396488 .00001731 00000-0 75477-4 0 9998 2 40377 099.1010 292.6016 0131467 251.4773 107.2133 15.16738526168949 FIREBIRD FU4 1 40378U 15003C 18053.60358325 .00001801 00000-0 78255-4 0 9991 2 40378 099.1011 292.6413 0131690 251.4012 107.2876 15.16750164168942 GRIFEX 1 40379U 15003D 18053.49010932 .00001373 00000-0 64730-4 0 9995 2 40379 099.1054 289.1922 0138350 262.8253 095.7227 15.13979630168735 NO-84 1 40654U 15025D 18053.39361956 .00013871 00000-0 23006-3 0 02268 2 40654 054.9926 194.1203 0165358 176.6731 183.5363 15.38602868038169 NO-83 1 40655U 15025E 18053.52327488 .00024124 00000-0 28596-3 0 02628 2 40655 054.9784 148.8644 0119451 203.0795 156.4509 15.52875303038449 DEORBITSAIL 1 40719U 15032E 18053.51105777 .00000381 00000-0 62117-4 0 9995 2 40719 097.9578 308.8151 0017750 059.3537 300.9420 14.76336211141251 NUDT-PHONESAT 1 40900U 15049B 18053.57630982 .00001883 00000-0 88326-4 0 9990 2 40900 097.4437 063.1809 0015306 073.0871 287.2041 15.20810109134499 XW-2A 1 40903U 15049E 18053.57693423 .00001674 00000-0 43908-4 0 9997 2 40903 097.3983 087.2362 0016145 084.7224 275.5864 15.40025672136165 XW-2C 1 40906U 15049H 18053.53456137 .00000621 00000-0 36676-4 0 9990 2 40906 097.4595 059.1450 0016684 069.7000 290.6023 15.15023698134135 XW-2D 1 40907U 15049J 18053.56402291 .00000651 00000-0 38136-4 0 9992 2 40907 097.4568 058.8859 0016026 067.8302 292.4629 15.15162614134144 LILACSAT-2 1 40908U 15049K 18053.56716010 .00000348 00000-0 23063-4 0 9996 2 40908 097.4677 058.3922 0017641 068.1773 292.1333 15.13411711134032 XW-2F 1 40910U 15049M 18053.53378067 .00001012 00000-0 55565-4 0 9993 2 40910 097.4576 059.9652 0016728 064.5302 295.7659 15.16272860134205 XW-2B 1 40911U 15049N 18053.57745522 .00000650 00000-0 38137-4 0 9995 2 40911 097.4605 059.3918 0015933 068.3043 291.9884 15.15111293134040 DCBB 1 40912U 15049P 18053.43961701 .00001281 00000-0 65293-4 0 9994 2 40912 097.4516 062.4066 0017000 054.5880 051.3799 15.18460307134256 TW-1C 1 40926U 15051B 18053.61385340 .00008391 00000-0 16685-3 0 9990 2 40926 097.1972 096.5456 0010002 346.6801 165.2941 15.47146994135584 TW-1A 1 40928U 15051D 18053.40666282 .00003587 00000-0 97863-4 0 9996 2 40928 097.1990 089.6269 0012973 024.4985 102.8549 15.38006056135130 IO-86 1 40931U 15052B 18053.09701569 .00000814 00000-0 24453-4 0 9999 2 40931 005.9979 250.7892 0012381 181.4153 178.6701 14.76566708129966 LQSat 1 40958U 15057A 18053.50213976 .00000050 00000-0 15587-4 0 9999 2 40958 097.9516 129.1075 0018008 349.6868 010.3969 14.73017019127978 AO-85 1 40967U 15058D 18053.33109519 .00000027 00000-0 21851-4 0 02457 2 40967 064.7754 179.9146 0194710 350.0266 009.6981 14.75641124036706 ATHENOXAT-1 1 41168U 15077C 18053.54080569 .00002420 00000-0 96916-4 0 9997 2 41168 014.9866 139.2357 0012015 248.8964 138.0039 15.12474512120993 ChubuSat-2 1 41338U 16012B 18053.12169684 .00000355 00000-0 21119-4 0 9994 2 41338 31.0041 324.6832 0013731 13.5008 346.5992 14.99922784110544 ChubuSat-3 1 41339U 16012C 18053.14997996 .00000401 00000-0 24565-4 0 9992 2 41339 31.0114 323.2664 0013542 20.9959 339.1228 15.00114774110535 Horyu-4 1 41340U 16012D 18053.07095692 .00000527 00000-0 33714-4 0 9993 2 41340 31.0059 319.4187 0013935 31.3659 328.7806 15.00890010110586 OUFTI-1 1 41458U 16025C 18053.57622131 .00002088 00000-0 11272-3 0 9994 2 41458 098.1482 110.2431 0171563 171.6267 188.7897 15.04262659100213 e-st@r-II 1 41459U 16025D 18053.43067471 .00002943 00000-0 15742-3 0 9996 2 41459 098.1503 109.9707 0172526 172.7279 187.6509 15.04037728100174 AAUSAT4 1 41460U 16025E 18053.51303613 .00002084 00000-0 11223-3 0 9994 2 41460 098.1427 110.3936 0163696 169.0689 191.4172 15.05308786100235 LO-87 1 41557U 16033B 18053.31560379 .00001253 00000-0 48522-4 0 9992 2 41557 97.4429 137.7289 0013432 197.3594 162.7188 15.28010459 96617 NuSat2 1 41558U 16033C 18053.31075755 .00001286 00000-0 49993-4 0 9991 2 41558 97.4457 137.8052 0012903 195.9961 164.0872 15.27842477 96608 Lapan A3 1 41603U 16040E 18053.56331797 .00000354 00000-0 19860-4 0 9993 2 41603 097.4268 117.0765 0011760 283.2903 186.4647 15.19514862092673 Swayam 1 41607U 16040J 18053.59726513 .00001243 00000-0 57692-4 0 9997 2 41607 097.4281 118.1213 0012295 281.3978 078.5877 15.21849142092678 Pratham 1 41783U 16059A 18053.50317774 .00000032 00000-0 15500-4 0 9995 2 41783 098.1333 116.8303 0034939 095.7440 264.7747 14.62901669075194 AlSat 1N 1 41789U 16059G 18053.42009946 .00000085 00000-0 25210-4 0 9998 2 41789 098.1336 117.7408 0029860 088.5892 271.8725 14.64128547075224 ScatSat 1 41790U 16059H 18053.55530344 -.00000005 00000-0 98892-5 0 9995 2 41790 098.2766 103.3293 0019595 083.8174 276.5253 14.50861363074561 TY-1 1 41844U 16066D 18053.50598535 .00001616 00000-0 71705-4 0 9995 2 41844 097.4064 062.0161 0017769 079.3216 071.4729 15.22892385071426 Pegasus-1 1 41846U 16066F 18053.53255647 .00000167 00000-0 36730-4 0 9993 2 41846 098.7659 079.5773 0367855 227.0464 129.9327 14.37261939067434 CAS-2T 1 41847U 16066G 18053.50201909 .00000011 00000-0 12842-4 0 9999 2 41847 098.7591 079.9273 0365592 225.0510 132.0487 14.37861830067848 STARS-C 1 41895U 98067KR 18053.74089452 .00686396 25431-3 79670-3 0 9991 2 41895 51.6310 185.3077 0006662 324.1436 35.9083 16.08193661 67472 TO-89 1 41932U 98067KU 18053.36709878 .00020932 00000-0 17808-3 0 9997 2 41932 51.6367 209.4707 0003807 127.5586 232.5757 15.69547366 62696 AOBA-V3LOX3 1 41935U 98067KX 18053.52455629 .00025590 00000-0 20026-3 0 9991 2 41935 051.6358 206.7423 0002982 132.6011 227.5239 15.71430342062841 OSNSAT 1 41939U 98067KZ 18011.28402027 .11925055 12489-4 54124-3 0 9997 2 41939 051.6147 038.9582 0001091 231.1728 128.9202 16.43639489055773 EO-88 1 42017U 17008BX 18053.60627169 .00001292 00000-0 56206-4 0 9991 2 42017 097.4628 119.2899 0007979 069.3534 290.8558 15.24054210056612 HAVELSAT 1 42700U 98067LH 18053.44431011 .00017620 00000-0 17831-3 0 9997 2 42700 51.6364 218.9732 0004700 179.6490 180.4509 15.65371730 44013 SOMP2 1 42701U 98067LJ 18053.56867625 .00017081 00000-0 17716-3 0 9998 2 42701 051.6361 219.0528 0004712 179.3013 180.7989 15.64773941044011 Columbia 1 42702U 98067LK 18053.27149670 .00402735 78787-4 83832-3 0 9997 2 42702 51.6246 202.5590 0006710 301.8245 58.2111 15.98481021 44130 PHOENIX 1 42706U 98067LP 18053.55956809 .00016387 00000-0 17169-3 0 9995 2 42706 051.6363 218.9963 0001180 136.9493 223.1595 15.64557925043933 X-CubeSat 1 42707U 98067LQ 18053.51438861 .00017888 00000-0 17994-3 0 9998 2 42707 051.6341 218.6625 0001190 145.3201 214.7872 15.65516678043928 qbee 1 42708U 98067LR 18053.54201584 .00017823 00000-0 18227-3 0 9991 2 42708 051.6362 218.8632 0001245 143.3120 216.7961 15.65102760043880 ZA-AeroSat 1 42713U 98067LU 18053.56438080 .00014021 00000-0 15426-3 0 9997 2 42713 051.6355 220.5215 0002160 108.8258 251.2971 15.63451919043572 LINK 1 42714U 98067LV 18053.53922224 .00029311 00000-0 25554-3 0 9994 2 42714 051.6325 216.5533 0001480 120.9735 239.1408 15.68739030043733 UPSat 1 42716U 98067LX 18053.52225722 .00024063 00000-0 22283-3 0 9999 2 42716 051.6355 217.2312 0003162 186.4576 173.6380 15.67369883043746 SpaceCube 1 42717U 98067LY 18053.50029506 .00016839 00000-0 17317-3 0 9994 2 42717 051.6353 219.3371 0003361 180.9261 179.1728 15.65006898042955 Hoopoe 1 42718U 98067LZ 18053.54125476 .00022116 00000-0 21494-3 0 9998 2 42718 051.6360 218.1132 0003195 181.5548 178.5438 15.66222145042975 Challenger 1 42721U 98067MA 18053.53476213 .00038764 00000-0 30685-3 0 9997 2 42721 051.6338 215.0223 0004598 172.4323 187.6745 15.70922868042717 NJUST-1 1 42722U 98067MB 18053.56621585 .00013463 00000-0 15209-3 0 9999 2 42722 051.6366 221.2892 0006110 160.9416 199.1808 15.62799068042631 UNSW-EC0 1 42723U 98067MC 18053.44518877 .00022178 00000-0 21394-3 0 9991 2 42723 51.6373 218.9849 0005340 163.1643 196.9531 15.66398512 42637 DUTHsat 1 42724U 98067MD 18053.52859987 .00033998 00000-0 27924-3 0 9998 2 42724 051.6344 215.7536 0004179 172.6534 187.4526 15.70101958042626 LO-90 1 42725U 98067ME 18053.55335009 .00017056 00000-0 18174-3 0 9990 2 42725 051.6364 220.4537 0005057 164.2283 195.8870 15.64085810042566 nSIGHT1 1 42726U 98067MF 18053.56277379 .00006873 00000-0 91071-4 0 9990 2 42726 051.6383 224.2901 0005912 162.0980 198.0222 15.59551533042509 QBITO 1 42728U 98067MH 18053.53312270 .00018342 00000-0 18813-3 0 9995 2 42728 051.6382 219.5988 0002789 170.1734 189.9316 15.65003171042362 Aalto-2 1 42729U 98067MJ 18053.52667469 .00018587 00000-0 18957-3 0 9998 2 42729 051.6363 219.5277 0002765 170.5937 189.5110 15.65136645042378 SUSat 1 42730U 98067MK 18053.57097056 .00016756 00000-0 17578-3 0 9998 2 42730 051.6359 219.8139 0002884 166.4526 193.6547 15.64505105042375 i-INSPIRE II 1 42731U 98067ML 18053.53957629 .00025384 00000-0 23982-3 0 9999 2 42731 051.6352 218.0755 0005308 114.8420 245.3128 15.66829453042432 PolyITAN-2-SAU 1 42732U 98067MM 18053.57084208 .00019547 00000-0 19733-3 0 9991 2 42732 051.6357 219.0478 0005683 112.6485 247.5112 15.65345011042422 SNUSAT-1 1 42733U 98067MN 18053.57252919 .00017338 00000-0 18163-3 0 9990 2 42733 051.6360 219.8154 0005900 115.3967 244.7639 15.64501487042415 ExAlta-1 1 42734U 98067MP 18053.54460133 .00026515 00000-0 24956-3 0 9991 2 42734 051.6340 218.1054 0006465 140.5672 219.5796 15.66888248042380 Aoxiang-1 1 42735U 98067MQ 18053.54969414 .00013420 00000-0 15055-3 0 9999 2 42735 051.6358 221.1657 0006617 158.0728 202.0551 15.62979979043765 BeEagleSat 1 42736U 98067MR 18053.49699538 .00014941 00000-0 16163-3 0 9991 2 42736 051.6354 220.8104 0006364 157.7419 202.3853 15.63810166042453 Atlantis 1 42737U 98067MS 18053.51301766 .00154696 00000-0 59466-3 0 9993 2 42737 051.6249 206.4723 0002728 247.6101 112.4614 15.86383420042539 CAS-4B 1 42759U 17034B 18053.77462172 .00000373 00000-0 36613-4 0 9991 2 42759 43.0206 351.3249 0007238 110.1741 338.4238 15.09197673 38163 CAS-4A 1 42761U 17034D 18053.30759968 .00000452 00000-0 41427-4 0 9992 2 42761 43.0206 353.7333 0007602 109.1757 27.0854 15.09273662 38085 UCLSat 1 42765U 17036A 18053.46075014 .00001146 00000-0 53860-4 0 9993 2 42765 097.4167 115.0878 0013483 115.8605 244.4023 15.21526924037854 NIUSat 1 42766U 17036B 18053.54086621 .00000865 00000-0 43042-4 0 9997 2 42766 097.4170 114.6866 0017766 104.2159 256.1051 15.20130124037117 LituanicaSAT 2 1 42768U 17036D 18053.47484289 .00001603 00000-0 75430-4 0 9990 2 42768 097.4175 114.7798 0017637 107.3291 252.9876 15.20862381037124 Aalto 1 1 42775U 17036L 18053.40283454 .00000754 00000-0 37538-4 0 9995 2 42775 097.4164 114.7085 0015948 105.0419 255.2582 15.20527485037054 URSA MAIOR 1 42776U 17036M 18053.39475400 .00000786 00000-0 38899-4 0 9994 2 42776 97.4170 114.7301 0015798 105.3040 254.9943 15.20592924 37056 Max Valier Sat 1 42778U 17036P 18053.19623700 .00000888 00000-0 43019-4 0 9995 2 42778 097.4191 114.7438 0014343 110.8261 249.4512 15.21046055037021 Pegasus 1 42784U 17036V 18053.41872214 .00001040 00000-0 49408-4 0 9992 2 42784 97.4170 114.9992 0014022 116.1305 244.1376 15.21356690 37067 NUDATSat 1 42787U 17036Y 18053.44109465 .00001510 00000-0 69485-4 0 9998 2 42787 097.4175 115.1258 0013596 116.1646 244.0990 15.21798077036919 SUCHAI 1 1 42788U 17036Z 18053.39426564 .00001219 00000-0 57039-4 0 9993 2 42788 97.4171 115.0301 0013645 116.1987 244.0653 15.21573317 37136 SKCUBE 1 42789U 17036AA 18053.39174892 .00001146 00000-0 53849-4 0 9992 2 42789 097.4169 115.0296 0013461 116.1232 244.1391 15.21559668037050 VZLUSAT 1 1 42790U 17036AB 18053.36658166 .00001504 00000-0 69147-4 0 9998 2 42790 097.4171 115.0604 0013150 116.6489 243.6095 15.21827914037059 VENTA 1 1 42791U 17036AC 18053.24629202 .00001104 00000-0 51875-4 0 9990 2 42791 097.4169 114.9167 0013073 117.1401 243.1170 15.21627510037029 Robusta 1B 1 42792U 17036AD 18053.37088553 .00001163 00000-0 54381-4 0 9993 2 42792 097.4168 115.0495 0013031 117.1605 243.0961 15.21696695037066 D-SAT 1 42794U 17036AF 18053.40535078 .00000085 00000-0 13273-4 0 9995 2 42794 097.6084 112.3046 0125915 304.5153 054.4228 14.90784847036627 BIRD-J 1 42820U 98067MU 18052.92835762 .00015299 00000-0 17091-3 0 9991 2 42820 051.6356 225.2656 0002811 096.6367 263.4948 15.62973839035828 BIRD-G 1 42821U 98067MV 18052.69484791 .00013833 00000-0 15695-3 0 9998 2 42821 51.6357 226.7065 0002861 98.7684 261.3634 15.62669599 35745 BIRD-M 1 42822U 98067MW 18053.58469701 .00014685 00000-0 16532-3 0 9999 2 42822 051.6358 222.1514 0002816 103.6301 256.5007 15.62814098035902 BIRD-B 1 42823U 98067MX 18053.52172480 .00014497 00000-0 16301-3 0 9994 2 42823 051.6363 222.4913 0005597 120.9110 239.2435 15.62848675035893 BIRD-N 1 42824U 98067MY 18053.53424501 .00015106 00000-0 17042-3 0 9991 2 42824 051.6369 222.5840 0005473 121.6665 238.4863 15.62724185035891 TechnoSat 1 42829U 17042E 18053.58920692 .00000050 00000-0 10570-4 0 9999 2 42829 097.6060 320.1990 0013264 215.9115 144.1214 14.90770427033250 Mayak 1 42830U 17042F 18053.56023861 .00000697 00000-0 75606-4 0 9999 2 42830 097.6068 320.2554 0013360 214.1135 145.9226 14.91122564033253 OBJECT MZ 1 42910U 98067MZ 18053.52469724 .00010842 00000-0 13362-3 0 9995 2 42910 051.6353 224.7358 0006679 140.7366 219.4113 15.60768288029459 OBJECT NA 1 42911U 98067NA 18053.56256680 .00013098 00000-0 15707-3 0 9996 2 42911 051.6364 224.2666 0006191 136.8581 223.2899 15.61271212029443 OBJECT NB 1 42912U 98067NB 18053.53076495 .00011981 00000-0 14630-3 0 9991 2 42912 051.6362 224.7687 0005652 148.6242 211.5090 15.60895785029456 OBJECT NC 1 42913U 98067NC 18053.56327575 .00023978 00000-0 24768-3 0 9995 2 42913 051.6350 221.9917 0004273 162.5534 197.5608 15.64626922029497 OBJECT ND 1 42914U 98067ND 18053.48982446 .00011689 00000-0 14487-3 0 9994 2 42914 051.6366 225.2781 0005633 142.1451 217.9940 15.60534355029416 QIKCOM-1 1 42983U 98067NF 18053.49626898 .00003348 00000-0 55287-4 0 9994 2 42983 051.6403 229.7648 0005479 129.1550 262.7202 15.55397864018365 AO-91 1 43017U 17073E 18053.32462917 .00000646 00000-0 57102-4 0 9999 2 43017 097.7005 349.3066 0258924 285.6275 071.6503 14.77914386014143 EcAMSat 1 43019U 98067NG 18053.54677455 .00004205 00000-0 66701-4 0 9992 2 43019 051.6389 229.4252 0005615 106.8146 253.3462 15.55788032100695 PICSAT 1 43132U 18004X 18053.35484069 .00001139 00000-0 52498-4 0 9998 2 43132 097.5493 115.6598 0011304 134.7459 225.4699 15.22303411006240 AO-92 1 43137U 18004AC 18053.61380981 .00000864 00000-0 40446-4 0 9994 2 43137 097.5491 115.9283 0010773 135.1370 225.0738 15.22439420006287 TianYi 2 1 43155U 18008A 18053.21806861 .00001385 00000-0 88076-4 0 9994 2 43155 97.5339 129.6013 0017678 176.8998 248.0612 15.10354999 5133 2018-008C 1 43157U 18008C 18053.23695682 .00000489 00000-0 34369-4 0 9995 2 43157 97.5399 129.6051 0016179 164.7836 261.0797 15.09514008 5131 2018-008D 1 43158U 18008D 18053.43443377 .00000671 00000-0 45737-4 0 9994 2 43158 97.5330 129.7730 0014192 168.1060 250.6710 15.09522523 5143 FMN 1 1 43192U 18015A 18053.61707976 .00002823 00000-0 12517-3 0 9998 2 43192 097.3376 185.0385 0016792 180.5779 179.5441 15.22288024003084 Shaonian Xing 1 43199U 18015H 18053.60364640 .00002136 00000-0 92694-4 0 9993 2 43199 097.3160 185.0005 0017259 194.5791 165.4949 15.23285782003096 /EX